CZ-3C DEB, 40861

Orbit data source: Space-Track

CZ-3C DEB, 40861 is space debris in HEO originally from a launch on Fri, 24 Feb 2012 UTC launched from the Xichang Space Center, China (XSC). Debris objects in space refer to the collection of defunct objects orbiting the Earth. Examples of debris include non-operational satellites, rocket bodies, and fragments generated from explosions, collisions, or faulty payload assembly.

Loading next visibility...
CZ-3C DEB details
Identifier
40861, 2012-008AB
Orbit
HEO
Last TLE update2 months ago
Origin
Flag of CNCASC (CN / PRC)
ManufacturerCALT
MissionSpacecraft
Bus & MotorUnknown
MassUnknown
Launch date (UTC)
2012-02-24 (13 years ago)
Launch vehicleUnknown
Launch site
Xichang Space Center, China (XSC)
Object type
Payload
Rocket body
Debris
Shape & HBRUnknown
Radar Cross SectionMedium (>0.1 m² and <1 m²)

Expand to show TLE details & history

TLE from 2 months ago
0 CZ-3C DEB
1 40861U 12008AB  24312.88214532  .00000154  00000-0  13806-2 0  9995
2 40861  20.2599 183.7947 7125841 262.8345  18.6454  2.28959523 83021
Epoch: 2024-11-07T21:10Z
Definitive object data (Epoch: 2024-11-07T21:10:17.355Z)
Latitude0.00015°
Longitude178.80127°
Altitude6,792.419 km
Speed6.643 km/s
True Right ascension12h 15m 43s
True Declination0° 00' 01"
Sunlit
Object was in daylight at TLE epoch
Visualization TLE readout
Latitude19.08339°
Longitude-89.35842°
Altitude34,727.776 km
Speed1.733 km/s
Apparent Right ascension18h 51m 20s
Apparent Declination13° 16' 46"
Sunlit
Object is in daylight
Visualization observer readout
Local Sidereal Time12:00:08
Azimuth71.665° E
Elevation-1.03°
Doppler factor1
Orbital elements
Apogee altitude35,272.825 km
Perigee altitude611.972 km
Semi-major axis24,320.535 km
Eccentricity0.7125841
Inclination20.2599°
RAAN183.7947°
Arg. of periapsis262.8345°
True anomaly97.21145°
Mean anomaly18.6454°
Eccentric anomaly49.85499°
Mean motion0.57225 °/min
BSTAR0.0013806
Orbital period629.1 mins
Loading maneuver chart data...
Loading historical data...
Loading historical data...
Loading historical data...
Loading historical data...
Loading historical data...
Loading historical data...
Loading historical data...

CZ-3C DEB Visibility forecast

Observer location: undefined°, undefined

Span
Click to sort rows by Start time (UTC) header in descending order
Start Az.
Max El. time (UTC)
Max El. Az.
Max El.
End time (UTC)
End Az.
361 mins2024-12-26 19:33:36.059Z266.915° W2024-12-26 21:15:36.059Z262.644° W27.759°2024-12-27 01:34:36.059Z273.874° WNW
|